Погода в Норске

Погода в Норске : погода сейчас, прогноз погоды и архив. Всё, что Вы хотите узнать о погоде в Норске!

Хотите узнать прогноз погоды в Норске? Тогда Вам сюда: Погода в Норске

Поиск расширенной информации на нашем сайте:

Другие новости

Новости СМИ2

Главная страница сайта

Новости сайта

03.07.2017

Напоминаем, что на нашем специализированном сайте Метеоцентр.Азия вы можете получить высокодетализированные автоматические прогнозы погоды по пунктам России, СНГ и мира в авиационном формате (включающие направление и скорость ветра, видимость, явления погоды, количество и форму облачности, нижнюю и верхнюю границу облачности).


Погода в Норске - сегодня

Время (UTC), дата Ветер
(°,м/с) 
Видим.   Явления Облачность Т
(°С)
Тd
(°С)
f(%) Тe
(°С)
Pmin
(гПа)
dP
(гПа)
Po
(мм)
O2
(г/м3)
Тmin Tmax R s Состояние
почвы
15 17.10.17 тихо ()   20000 м    ясно 
-9.1 -14.1 67 -9  1029.3  0.1  752  315           
18 17.10.17 тихо ()   20000 м    ясно 
-12.3 -13.4 91 -12  1029.3  -0.3  751  318           
21 17.10.17 тихо ()   20000 м    ясно 
-13.5 -14.9 89 -14  1028.8  -0.6  751  320           
00 18.10.17 110 (В) 20000 м    10/0 средняя, верхняя 
[Ac trans|Ci fib]
-7.8 -10.8 79 -8  1028.6  0.4  751  313  -13.8        замёрзшая 
03 18.10.17 190 (Ю) 20000 м    10/0 средняя, верхняя 
[Ac trans|Cs]
-0.4 -10.1 48 1026.7  -1.1  750  304           
06 18.10.17 120 (ЮВ) 20000 м    10/1 1000 м верхняя 
[Cu hum|Cs]
-0.1 -6.7 61 -2  1024.8  -1.9  749  303           
09 18.10.17 090 (В) 20000 м    10/10 1000 м 
[Ns]
-1.6 -7.1 66 -1  1023.8  -1.1  748  304           
12 18.10.17 100 (В) 20000 м    10/0 средняя 
[As trans]
-2 -7.1 68 -1  1023.5  -0.3  748  304    +0.2       
15 18.10.17 тихо ()   20000 м    10/0 средняя 
[Ac As]
-3.7 -6.8 79 -4  1022.7  -0.9  747  306           
18 18.10.17 040 (СВ) 20000 м    10/0 средняя 
[Ac As]
-4.3 -6.8 83 -4  1022.2  -0.6  747  306           
21 18.10.17 060 (СВ) 20000 м    10/6 1000 м средняя 
[Sc|Ac trans]
-4 -6.1 85 -4  1021.3  -0.9  746  306           
00 19.10.17 070 (В) 20000 м    10/8 1000 м средняя 
[Sc|Ac trans]
-3.2 -5.5 84 -3  1021.6  0.4  746  305  -4.5        замёрзшая 
03 19.10.17 090 (В) 20000 м    9/0 средняя, верхняя 
[Ac trans|Ci fib]
+1.3 -5.4 61 +2  1020.5  -0.6  746  300           
06 19.10.17 100 (В) 20000 м    10/0 средняя, верхняя 
[Ac lent|Cs]
+3.8 -7.2 44 +3  1018.8  -1.5  745  297           
09 19.10.17 060 (СВ) 20000 м    10/3 1000 м средняя, верхняя 
[Sc|Ac trans|Cs]
-0.2 -6.9 61 1018.9  -0.3  745  301           
12 19.10.17 тихо ()   20000 м    6/0 средняя, верхняя 
[Ac trans|Ci fib]
-3.3 -6.8 77 -3  1018.7  -0.4  744  304    +4.2       
15 19.10.17 130 (ЮВ) 20000 м    10/0 средняя, верхняя 
[Ac trans|Ci fib]
-1.9 -6.3 72 -1  1018.1  -0.5  744  303           
18 19.10.17 140 (ЮВ) 20000 м    10/0 средняя 
[Ac trans]
-1.2 -6.4 68 -1  1016.7  -1.3  743  301           
21 19.10.17 110 (В) 20000 м    10/4 1000 м средняя 
[Sc|Ac trans]
-0.6 -4.3 76 1016  -0.6  743  300           
00 20.10.17 тихо ()   4000 м  слаб. снег  10/0 средняя 
[As op]
-0.8 -2.1 91 -1  1016.5  0.5  743  300  -4.4    0.0    замёрзшая 
03 20.10.17 190 (Ю) 4000 м  слаб. снег  10/10 600 м 
[Ns]
-0.1 -1.5 90 +1  1016  -0.5  743  299           
06 20.10.17 тихо ()   4000 м  слаб. снег  10/10 600 м 
[Ns]
-0.1 -1 94 -0  1015.2  -0.7  742  299           
09 20.10.17 тихо ()   4000 м  слаб. снег  10/10 600 м 
[Ns]
-0.7 -1.3 96 -1  1014.9  -0.4  742  300           
12 20.10.17 тихо ()   4000 м  слаб. снег  10/10 600 м 
[Ns]
-0.7 -1.3 96 -1  1014.1  -0.8  741  299    +0     
15 20.10.17 тихо ()   4000 м  слаб. снег  10/10 600 м 
[Ns]
-2.1 -2.7 96 -2  1013.2  -0.9  740  301           
Время (UTC), дата Ветер
(°,м/с) 
Видим.   Явления Облачность Т
(°С)
Тd
(°С)
f(%) Тe
(°С)
Pmin
(гПа)
dP
(гПа)
Po
(мм)
O2
(г/м3)
Тmin Tmax R s Состояние
почвы

Для получения пояснительной информации подведите курсор к названию столбца.

ПОГОДА в Норске - архив

Всё, что Вы хотите узнать о погоде в Норске - удобно и подробно!

Выберите нужную дату (начиная с 1 января 2015* года) и нажмите кнопку "Найти".
Будут отображены архивные сводки погоды по пункту Норск, начиная с указанной даты.


Отображать данные в формате CSV (для использования в таблицах Excel)


Внимание! Наш архив погоды предназначен исключительно для личного некоммерческого использования в познавательных целях. Если Вам необходимы официальные справки о состоянии погоды (для производственных, юридических, коммерческих и т.п. целей), обращайтесь в органы Росгидромета.

*Примечание: данная дата относится к архиву по метеостанциям СССР (Россия, СНГ, Балтия).
Архив по метеостанциям Зарубежной Европы и Азии (кроме Китая) хранится 10 дней, по другим регионам земного шара (Китай, Африка, Америка, Австралия, Океания) - 1 день.

Норск - район местоположения метеостанции


Название, широта, долгота, высота метеостанции:
Норск 52.3°ш. 129.9°д. 208 м над ур. моря [Российская Федерация]

Дополнительная информация

В oтличие oт бoльшинства пoгoдных сайтoв мы публикуем пoдрoбную метеoинфoрмацию в детальнoм прoфессиoнальнoм фoрмате.

Характеристики температуры и влажнoсти вoздуха измеряются на высoте 2 м в тени вдали oт зданий и деревьев.
Скoрoсть ветра измеряется на высoте 10 м (на урoвне рoста челoвека скoрoсть ветра ниже в 1.5-2 раза). Если метеoстанция нахoдится в гoрoде или в лесу, тo скoрoсть ветра занижена на 2-4 м/с пo сравнению с oткрытым местoм. Скoрoсть ветра над акватoриями крупных рек и oзёр, а также на вершинах хoлмoв на 2-5 м/с выше, чем в oбычных услoвиях.
Атмoсфернoе давление в разных тoчках местнoсти мoжет значительнo oтличаться oт давления на метеoстанции, в зависимoсти oт услoвий рельефа (при пoдъёме на 10 м давление пoнижается примернo на 1 мм рт.ст.).